This demonstration page uses our WeatherBlox Daily Observations layout. Learn more.

Left ArrowRight Arrow

36.17497, -115.13722

Hourly Observations for April 9, 2017

Temp ( °F °C ) Dew Point ( °F °C ) Humidity (%) Winds ( mph kmh ) Pressure ( in mb ) Visibility ( mi km ) Precip ( " mm )
12:53 am 00:53 Clear 56 13.3 18 -7.8 22 22 NNW 21 33 29.98 1015 10 16.0934 N/A
1:53 am 01:53 Clear 55 12.8 19 -7.2 24 24 NNW 15 24 30.01 1016 10 16.0934 N/A
2:53 am 02:53 Clear 52 11.1 21 -6.1 30 30 ENE 10 17 30.04 1017 10 16.0934 N/A
3:53 am 03:53 Clear 52 11.1 22 -5.6 31 31 N 10 17 30.06 1018 10 16.0934 N/A
4:53 am 04:53 Clear 50 10 21 -6.1 32 32 N 12 19 30.07 1018 10 16.0934 N/A
5:53 am 05:53 Clear 51 10.6 20 -6.7 29 29 NNW 15 24 30.1 1019 10 16.0934 N/A
6:53 am 06:53 Sunny 49 9.4 21 -6.1 33 33 N 14 22 30.11 1020 10 16.0934 N/A
7:53 am 07:53 Sunny 53 11.7 20 -6.7 27 27 N 17 28 30.12 1020 10 16.0934 N/A
8:53 am 08:53 Sunny 56 13.3 18 -7.8 22 22 NNW 18 30 30.14 1021 10 16.0934 N/A
9:53 am 09:53 Sunny 57 13.9 15 -9.4 19 19 NW 10 17 30.15 1021 10 16.0934 N/A
10:53 am 10:53 Sunny 59 15 14 -10 17 17 E 8 13 30.16 1021 10 16.0934 N/A
11:53 am 11:53 Sunny 61 16.1 12 -11.1 14 14 VRB 3 6 30.14 1021 10 16.0934 N/A
12:53 pm 12:53 Sunny 63 17.2 10 -12.2 12 12 SE 8 13 30.13 1020 10 16.0934 N/A
1:53 pm 13:53 Sunny 63 17.2 10 -12.2 12 12 WSW 3 6 30.11 1020 10 16.0934 N/A
2:53 pm 14:53 Sunny 66 18.9 10 -12.2 11 11 VRB 5 7 30.09 1019 10 16.0934 N/A
3:53 pm 15:53 Sunny 65 18.3 8 -13.3 10 10 N N/A 30.06 1018 10 16.0934 N/A
4:53 pm 16:53 Sunny 67 19.4 7 -13.9 9 9 NE 3 6 30.05 1018 10 16.0934 N/A
5:53 pm 17:53 Sunny 66 18.9 7 -13.9 10 10 N N/A 30.04 1017 10 16.0934 N/A
6:53 pm 18:53 Sunny 65 18.3 8 -13.3 10 10 SE 7 11 30.04 1017 10 16.0934 N/A
7:53 pm 19:53 Clear 63 17.2 9 -12.8 12 12 SE 6 9 30.04 1017 10 16.0934 N/A
8:53 pm 20:53 Clear 62 16.7 8 -13.3 12 12 ESE 5 7 30.07 1018 10 16.0934 N/A
9:53 pm 21:53 Clear 61 16.1 10 -12.2 13 13 W 5 7 30.09 1019 10 16.0934 N/A
10:53 pm 22:53 Clear 56 13.3 17 -8.3 22 22 N 6 9 30.09 1019 10 16.0934 N/A
11:53 pm 23:53 Clear 54 12.2 18 -7.8 24 24 NW 7 11 30.09 1019 10 16.0934 N/A

Powered by AerisWeather